Home > Weather > Klaksvík > Past weeks

Flag for Faroe Islands Past Weather in Klaksvík, Faroe Islands, Faroe Islands — Yesterday and Last 2 Weeks

Now
54 °F

Partly sunny.


Feels Like: 49 °F
Forecast: 50 / 56 °F
Wind: 21 mph from West

Location: Thorshavn

Current Time: Jun 27, 2016 at 2:22:39 PM

Latest Report: Jun 27, 2016 at 1:00 PM


Visibility: 22 mi

Pressure: 29.58 "Hg

Humidity: 76%

Dew Point: 47 °F

Location of KlaksvíkLocation

Past Weather in Klaksvík — Graph

°F

Klaksvík Temperature Yesterday

Maximum temperature yesterday: 52 °F (at 8:00 PM)
Minimum temperature yesterday: 49 °F (at 5:00 AM)
Average temperature yesterday: 50 °F

High & Low Weather Summary for the Past Weeks

 TemperatureHumidityPressure
High59 °F (Jun 18, 2:00 PM)100% (Jun 13, 7:00 PM)30.16 "Hg (Jun 13, 7:00 PM)
Low44 °F (Jun 18, 3:00 AM)64% (Jun 18, 2:00 PM)29.35 "Hg (Jun 20, 7:00 AM)
Average50 °F88%29.86 "Hg
* Reported Jun 12 1:00 PM — Jun 27 1:00 PM, Klaksvík, Weather by CustomWeather, © 2016

Note: Actual official high and low records may vary slightly from our data, if they occured in-between our weather recording intervals... More about our weather records

Advertising

Klaksvík Weather History for the Previous 24 Hours

Scroll right to see more
 ConditionsComfort  
Time TempWeatherWind HumidityBarometerVisibility
1:00 PM
Mon, Jun 27
54 °FPartly sunny.21 mph76%29.58 "Hg22 mi
12:00 PM54 °FOvercast.15 mph83%29.59 "Hg14 mi
11:00 AM53 °FPassing clouds.14 mph81%29.59 "Hg19 mi
10:00 AM54 °FOvercast.14 mph79%29.59 "Hg17 mi
9:00 AM52 °FPartly sunny.16 mph81%29.59 "Hg22 mi
8:00 AM50 °FOvercast.14 mph86%29.59 "Hg17 mi
7:00 AM50 °FOvercast.20 mph83%29.59 "Hg17 mi
6:00 AM50 °FOvercast.16 mph88%29.59 "Hg17 mi
5:00 AM49 °FFog.21 mph87%29.59 "Hg4 mi
4:00 AM50 °FLow clouds.15 mph94%29.59 "Hg9 mi
2:00 AM50 °FFog.16 mph96%29.60 "Hg2 mi
1:00 AM51 °FFog.16 mph96%29.59 "Hg5 mi
12:00 AM51 °FOvercast.18 mph92%29.58 "Hg16 mi
11:00 PM
Sun, Jun 26
51 °FFog.15 mph95%29.59 "Hg6 mi
10:00 PM51 °FLow clouds.12 mph94%29.59 "Hg9 mi
9:00 PM52 °FFog.18 mph96%29.58 "Hg3 mi
8:00 PM52 °FFog.21 mph99%29.57 "Hg1 mi
7:00 PM51 °FLow clouds.8 mph100%29.58 "Hg2 mi
6:00 PM50 °FDense fog.10 mph100%29.60 "Hg1 mi
4:00 PM49 °FLow clouds.13 mph99%29.65 "Hg2 mi
3:00 PM49 °FLight rain. Low clouds.15 mph98%29.68 "Hg3 mi
2:00 PM49 °FLight rain. Low clouds.13 mph97%29.71 "Hg2 mi
Weather by CustomWeather, © 2016

See weather overviewHow to use our weather pages